Morgantown, WV

2:56 PM EDT on April 24, 2018 (GMT -0400)
Morgantown Municipal-Hart

Weather History for KMGW - March, 2013

Change the Weather History Date:

Monday, March 4, 2013

  Actual Average Record
Temperature  
Mean Temperature 34 °F 38 °F  
Max Temperature 41 °F 48 °F 79 °F (1976)
Min Temperature 26 °F 29 °F 1 °F (2014)
Degree Days  
Heating Degree Days 31 27  
Month to date heating degree days 131 109  
Since 1 July heating degree days 3822 3998  
Cooling Degree Days 0 0  
Month to date cooling degree days 0 0  
Year to date cooling degree days 0 0  
Moisture  
Dew Point 15 °F    
Average Humidity 51    
Maximum Humidity 68    
Minimum Humidity 34    
Precipitation  
Precipitation 0.00 in 0.11 in 1.75 in (1963)
Month to date precipitation 0.05 0.43  
Year to date precipitation 4.62 5.84  
Sea Level Pressure  
Sea Level Pressure 30.10 in    
Wind  
Wind Speed 5 mph (West)    
Max Wind Speed 10 mph    
Max Gust Speed 17 mph    
Visibility 10 miles    
Events      
T = Trace of Precipitation, MM = Missing Value Source: NWS Daily Summary

Daily Weather History Graph

Daily Weather History Graph

Search for Another Location

Airport or City:

Astronomy

Mar. 04, 2013 Rise Set
Actual Time 6:47 AM EST 6:15 PM EST
Civil Twilight 6:20 AM EST 6:42 PM EST
Nautical Twilight 5:49 AM EST 7:13 PM EST
Astronomical Twilight 5:18 AM EST 7:44 PM EST
Moon 12:54 AM EST (3/4) 10:56 AM EST (3/4)
Length of Visible Light 12h 21m
Length of Day
11h 27m
Waning Gibbous, 52% of the Moon is Illuminated
Mar 4
Waning Gibbous
Mar 4
Last Quarter
Mar 11
New
Mar 19
First Quarter
Mar 27
Full

Hourly Weather History & Observations

Time (EST) Temp. Windchill Dew Point Humidity Pressure Visibility Wind Dir Wind Speed Gust Speed Precip Events Conditions
12:53 AM 26.1 °F 20.5 °F 15.1 °F 63% 30.05 in 10.0 mi West 4.6 mph - N/A   Overcast
1:53 AM 26.1 °F 20.5 °F 15.1 °F 63% 30.06 in 9.0 mi WNW 4.6 mph - N/A   Overcast
3:53 AM 26.1 °F 20.5 °F 12.9 °F 58% 30.07 in 10.0 mi Variable 4.6 mph - N/A   Overcast
4:53 AM 26.1 °F 20.5 °F 12.9 °F 58% 30.09 in 10.0 mi Variable 4.6 mph - N/A   Overcast
5:53 AM 26.1 °F 21.9 °F 14.0 °F 60% 30.10 in 10.0 mi Variable 3.5 mph - N/A   Overcast
6:53 AM 26.1 °F 21.9 °F 14.0 °F 60% 30.12 in 10.0 mi WSW 3.5 mph - N/A   Overcast
7:53 AM 26.1 °F 20.5 °F 14.0 °F 60% 30.15 in 9.0 mi West 4.6 mph - N/A   Overcast
8:53 AM 27.0 °F 18.7 °F 12.9 °F 56% 30.15 in 10.0 mi West 8.1 mph - N/A   Overcast
9:53 AM 28.0 °F 19.3 °F 12.9 °F 53% 30.17 in 10.0 mi West 9.2 mph - N/A   Overcast
10:53 AM 30.9 °F 26.2 °F 12.9 °F 47% 30.15 in 10.0 mi West 4.6 mph - N/A   Mostly Cloudy
11:53 AM 34.0 °F 31.0 °F 15.1 °F 46% 30.13 in 10.0 mi Variable 3.5 mph - N/A   Mostly Cloudy
12:53 PM 35.1 °F 27.4 °F 15.1 °F 44% 30.11 in 10.0 mi West 10.4 mph - N/A   Partly Cloudy
1:53 PM 37.0 °F 33.3 °F 15.1 °F 41% 30.09 in 10.0 mi Variable 4.6 mph - N/A   Clear
2:53 PM 39.0 °F 35.7 °F 15.1 °F 38% 30.07 in 10.0 mi Variable 4.6 mph - N/A   Clear
3:53 PM 39.9 °F 35.8 °F 15.1 °F 36% 30.07 in 10.0 mi West 5.8 mph - N/A   Clear
4:53 PM 39.9 °F 33.9 °F 14.0 °F 35% 30.06 in 10.0 mi West 9.2 mph - N/A   Clear
5:53 PM 39.0 °F 32.3 °F 14.0 °F 36% 30.07 in 10.0 mi West 10.4 mph - N/A   Clear
6:53 PM 37.0 °F 31.6 °F 15.1 °F 41% 30.09 in 10.0 mi West 6.9 mph - N/A   Clear
7:53 PM 33.1 °F - 16.0 °F 50% 30.10 in 10.0 mi Calm Calm - N/A   Clear
8:53 PM 33.1 °F - 16.0 °F 50% 30.09 in 10.0 mi Calm Calm - N/A   Clear
9:53 PM 30.9 °F - 16.0 °F 54% 30.10 in 10.0 mi Calm Calm - N/A   Clear
10:53 PM 27.0 °F - 18.0 °F 69% 30.10 in 10.0 mi Calm Calm - N/A   Clear
11:53 PM 27.0 °F - 19.0 °F 72% 30.09 in 10.0 mi Calm Calm - N/A   Clear